SANTA FE DAM CA US current weather conditions

sailwx.info

Wind from 264 at 2 knots gusting 5

Air temperature 20.0° C
Dewpoint 8.0° C

Last reported at 2015-Jan-30 19:57 UTC.
Time now 2015-Jan-30 21:41 UTC

Location: N 34°08' W 117°57'.
View on Google Maps.

See reports from other nearby stations

  
Tides and Currents Weather Stations Pressure Air Temp Water Temp Dewpoint Dewpoint Depression Visibility Wind Speed Wind Dir Waves Ship Positions
date/time (UTC)wind fromknots sea level pressurealtimeterstation pressurevisibilityair tempwater tempwave heightnotes
2015-Jan-30 19:57 264 2 gusting 5 20.0
2015-Jan-30 18:57 210 1 gusting 5 20.0
2015-Jan-30 17:57 162 2 gusting 4 18.9
2015-Jan-30 16:57 153 0 gusting 3 18.3
2015-Jan-30 15:57 014 1 gusting 10 16.1
2015-Jan-30 14:57 076 4 gusting 10 15.6
2015-Jan-30 13:57 078 1 gusting 5 15.0
2015-Jan-30 12:57 048 1 gusting 4 15.0
2015-Jan-30 11:57 061 2 gusting 7 16.7
2015-Jan-30 10:57 056 1 gusting 6 16.1
2015-Jan-30 09:57 059 1 gusting 6 16.1
2015-Jan-30 08:57 030 2 gusting 6 16.7
2015-Jan-30 07:57 053 3 gusting 6 17.8
2015-Jan-30 06:57 328 1 gusting 7 17.8
2015-Jan-30 05:57 025 2 gusting 6 18.3
2015-Jan-30 04:57 111 2 gusting 6 17.8
2015-Jan-30 03:57 027 0 gusting 6 18.9
2015-Jan-30 02:57 343 2 gusting 7 18.3
2015-Jan-30 01:57 223 0 gusting 6 19.4
2015-Jan-30 00:57 221 4 gusting 8 21.1
2015-Jan-29 23:57 223 3 gusting 6 23.9
2015-Jan-29 22:57 218 3 gusting 6 24.4
2015-Jan-29 21:57 295 4 gusting 8 25.6
2015-Jan-29 20:57 350 2 gusting 6 26.7
2015-Jan-29 19:57 202 2 gusting 7 26.1
2015-Jan-29 18:57 127 3 gusting 7 24.4
2015-Jan-29 17:57 053 2 gusting 6 21.1
2015-Jan-29 16:57 046 2 gusting 6 20.6
2015-Jan-29 15:57 039 2 gusting 8 17.8
2015-Jan-29 14:57 189 3 gusting 12 17.8
2015-Jan-29 13:57 046 4 gusting 9 17.2
2015-Jan-29 12:57 017 3 gusting 13 17.8
2015-Jan-29 11:57 037 2 gusting 11 16.7
2015-Jan-29 10:57 350 3 gusting 11 17.8
2015-Jan-29 09:57 046 5 gusting 10 17.8
2015-Jan-29 08:57 009 1 gusting 9 18.3
2015-Jan-29 07:57 036 2 gusting 8 17.8
2015-Jan-29 06:57 029 2 gusting 13 18.9
2015-Jan-29 04:57 053 4 gusting 12 19.4
2015-Jan-29 03:57 047 6 gusting 12 20.6
2015-Jan-29 02:57 029 4 gusting 9 19.4
2015-Jan-29 01:57 357 2 gusting 6 21.1
2015-Jan-29 00:57 028 3 gusting 6 22.2
2015-Jan-28 23:57 229 0 gusting 4 23.9
2015-Jan-28 22:57 245 1 gusting 6 23.9
2015-Jan-28 21:57 272 4 gusting 7 25.0